Weather History for Fort Myers, FL

Change the Weather History Date:

Sunday, October 2, 2011

  Actual Average Record
Temperature  
Mean Temperature 75 °F 81 °F  
Max Temperature 85 °F 89 °F 94 °F (1986)
Min Temperature 65 °F 73 °F 57 °F (1920)
Degree Days  
Heating Degree Days 0 0  
Month to date heating degree days 0 0  
Since 1 July heating degree days 0 0  
Cooling Degree Days 10 16  
Month to date cooling degree days 25 32  
Year to date cooling degree days 3545 3278  
Growing Degree Days 24 (Base 50)    
Moisture  
Dew Point 59 °F    
Average Humidity 60    
Maximum Humidity 84    
Minimum Humidity 43    
Precipitation  
Precipitation 0.00 in 0.15 in 4.78 in (1951)
Month to date precipitation 0.00 0.32  
Year to date precipitation 54.44 49.70  
Sea Level Pressure  
Sea Level Pressure 29.98 in    
Wind  
Wind Speed 8 mph (North)    
Max Wind Speed 13 mph    
Max Gust Speed 16 mph    
Visibility 10 miles    
Events      
T = Trace of Precipitation, MM = Missing Value Source: NWS Daily Summary

Daily Weather History Graph

Daily Weather History Graph

Search for Another Location

Airport:

Trip Planner

Search our weather history database for the weather conditions in past years. The results will help you decide how hot, cold, wet, or windy it might be!

Date:

Astronomy

Oct. 02, 2011 Rise Set
Actual Time 7:20 AM EDT 7:13 PM EDT
Civil Twilight 6:57 AM EDT 7:36 PM EDT
Nautical Twilight 6:30 AM EDT 8:02 PM EDT
Astronomical Twilight 6:03 AM EDT 8:29 PM EDT
Moon 12:54 PM EDT (10/2) 11:41 PM EDT (10/2)
Length of Visible Light 12h 39m
Length of Day
11h 52m
Waxing Crescent, 34% of the Moon is Illuminated
Oct 2
Waxing Crescent
Oct 3
First Quarter
Oct 11
Full
Oct 19
Last Quarter
Oct 26
New

Hourly Weather History & Observations

Time (EDT) Temp. Heat Index Dew Point Humidity Pressure Visibility Wind Dir Wind Speed Gust Speed Precip Events Conditions
12:53 AM 70.0 °F - 59.0 °F 68% 29.95 in 10.0 mi NNE 9.2 mph - N/A   Clear
1:53 AM 69.1 °F - 61.0 °F 75% 29.94 in 10.0 mi NNE 8.1 mph - N/A   Clear
2:53 AM 68.0 °F - 61.0 °F 78% 29.94 in 10.0 mi NNE 10.4 mph - N/A   Clear
3:53 AM 68.0 °F - 61.0 °F 78% 29.93 in 10.0 mi NNE 9.2 mph - N/A   Clear
4:53 AM 66.9 °F - 60.1 °F 79% 29.94 in 10.0 mi NE 9.2 mph - N/A   Clear
6:53 AM 64.9 °F - 59.0 °F 81% 29.96 in 10.0 mi NNE 8.1 mph - N/A   Clear
7:53 AM 66.0 °F - 57.0 °F 73% 29.98 in 10.0 mi NNE 8.1 mph - N/A   Clear
8:53 AM 70.0 °F - 54.0 °F 57% 29.99 in 10.0 mi NNE 10.4 mph - N/A   Clear
9:53 AM 73.0 °F - 54.0 °F 51% 30.01 in 10.0 mi NE 10.4 mph - N/A   Clear
10:53 AM 75.9 °F - 55.9 °F 50% 30.01 in 10.0 mi NNE 9.2 mph - N/A   Clear
12:53 PM 82.0 °F 82.4 °F 60.1 °F 47% 30.00 in 10.0 mi ENE 6.9 mph - N/A   Clear
2:53 PM 84.0 °F 83.8 °F 59.0 °F 43% 29.97 in 10.0 mi NNW 5.8 mph - N/A   Clear
3:53 PM 84.0 °F 83.8 °F 59.0 °F 43% 29.95 in 10.0 mi NW 3.5 mph - N/A   Clear
5:53 PM 84.0 °F 84.0 °F 60.1 °F 44% 29.95 in 10.0 mi NW 10.4 mph - N/A   Partly Cloudy
6:53 PM 79.0 °F - 61.0 °F 54% 29.96 in 10.0 mi NW 10.4 mph - N/A   Clear
7:53 PM 77.0 °F - 62.1 °F 60% 29.97 in 10.0 mi NW 5.8 mph - N/A   Clear
8:53 PM 75.0 °F - 63.0 °F 66% 29.99 in 10.0 mi NNW 4.6 mph - N/A   Clear
9:53 PM 75.0 °F - 55.9 °F 51% 30.02 in 10.0 mi North 9.2 mph - N/A   Partly Cloudy
10:53 PM 73.0 °F - 55.0 °F 53% 30.04 in 10.0 mi NNE 9.2 mph - N/A   Mostly Cloudy
11:53 PM 71.1 °F - 55.9 °F 59% 30.04 in 10.0 mi NNE 8.1 mph - N/A   Mostly Cloudy